Tracking 31027 objects as of 19-Jul-2025
HD Live streaming from Space Station
objects crossing your sky now

TITAN 3C TRANSTAGE DEB

Track TITAN 3C TRANSTAGE DEB now!
10-day predictions


NORAD ID: 2799
Int'l Code: 1965-082KX
Perigee: 635.0 km
Apogee: 682.4 km
Inclination: 32.1 °
Period: 97.8 minutes
Semi major axis: 7029 km
RCS: 0.0572 m2 (small)
Launch date: October 15, 1965
Source: United States (US)
Launch site: AIR FORCE EASTERN TEST RANGE (AFETR)

Note: This is SATELLITE DEBRIS
Your satellite tracking list
NUSAT-20 (GRACE)
Track 1 satellite(s)




NASA's NSSDC Master Catalog

Two Line Element Set (TLE):
1  2799U 65082KX  25199.71185319  .00000878  00000-0  12656-3 0  9995
2  2799  32.0537 193.5064 0033699  88.3107  77.9341 14.72990056106971
Source of the keplerian elements: AFSPC